Volver al catálogo

FENGYUN 1C DEB

ActivoSSO
NORAD 32132·DEBRIS·🇨🇳 China

Lanzado May 10, 1999 desde Taiyuan Satellite Launch Center

Loading…

Próximos Pases (próximas 24 horas)

TLE

ActualizadoSource: Space-Track

Época: Sep 14, 2026, 09:17 UTC

1 32132U 99025CSA 26257.38731724  .00003679  00000-0  85267-3 0  9999
2 32132  98.3567 316.3555 0077240 138.4754 222.2346 14.53837073748002

Sigue FENGYUN 1C DEB en tiempo real con AllMySat

Download on the App Store